User: anonymous   Login
Location: Alsip
(41.6689°N, 87.7387°W)
Time: 12:07:33
(UTC+00:00)
Language:

FO-99 - Orbit

View from above orbital plane
View from above orbital plane
View from above satellite
View from above satellite

Ground track
Ground track

The orbit data is extracted from the following two-line orbital elements,

1 43937U 19003F   21295.65991342  .00002974  00000-0  11611-3 0  9992
2 43937  97.1630 333.7044 0020873 281.9485  77.9414 15.26466645153663
Epoch (UTC): 22 October 2021 15:50:16
Eccentricity: 0.0020873
inclination: 97.1630°
perigee height: 472 km
apogee height: 501 km
right ascension of ascending node: 333.7044°
argument of perigee: 281.9485°
revolutions per day: 15.26466645
mean anomaly at epoch: 77.9414°
orbit number at epoch: 15366

The dashed part of the orbit path shows where the satellite is in the earth's shadow,  

DLR